Location: Austin
(30.3000°N, 97.7500°W)
Time: 05:25:54
(UTC-06:00)

Cosmos 2082 Rocket - Pass Details

Date: 03 March 2026
Orbit: 831 x 854 km, 71.0° (Epoch: 5 March)

Event Time Altitude Azimuth Distance (km) Brightness Sun altitude
Rises 21:15:27 0° 343° (NNW) 3,424 5.7 -35.9°
Reaches altitude 10° 21:17:56 10° 345° (NNW) 2,486 4.9 -36.5°
Enters shadow 21:19:04 16° 347° (NNW) 2,067 4.4 -36.7°
